TimeEDT,TemperatureF,Dew PointF,Humidity,Sea Level PressureIn,VisibilityMPH,Wind Direction,Wind SpeedMPH,Gust SpeedMPH,PrecipitationIn,Events,Conditions,WindDirDegrees,DateUTC
12:14 AM,40.8,32.0,71,29.92,10.0,West,5.8,-,N/A,,Overcast,270,2012-10-16 04:14:00
12:34 AM,40.5,31.8,71,29.92,10.0,West,6.9,-,N/A,,Overcast,270,2012-10-16 04:34:00
12:55 AM,40.5,31.6,71,29.91,10.0,West,5.8,-,N/A,,Overcast,270,2012-10-16 04:55:00
1:14 AM,40.3,31.8,72,29.91,10.0,West,5.8,-,N/A,,Overcast,270,2012-10-16 05:14:00
1:35 AM,40.1,32.0,73,29.92,10.0,West,4.6,-,N/A,,Overcast,260,2012-10-16 05:35:00
1:55 AM,40.1,32.0,73,29.92,10.0,West,4.6,-,N/A,,Overcast,260,2012-10-16 05:55:00
2:14 AM,39.7,32.0,74,29.92,10.0,WSW,4.6,-,N/A,,Overcast,250,2012-10-16 06:14:00
2:35 AM,39.7,32.4,75,29.92,10.0,WSW,4.6,-,N/A,,Overcast,240,2012-10-16 06:35:00
2:55 AM,39.7,32.5,75,29.93,10.0,Calm,Calm,-,N/A,,Overcast,0,2012-10-16 06:55:00
3:14 AM,40.1,32.2,73,29.92,10.0,WSW,3.5,-,N/A,,Overcast,250,2012-10-16 07:14:00
3:35 AM,39.7,32.2,74,29.92,10.0,WSW,4.6,-,N/A,,Overcast,250,2012-10-16 07:35:00
3:54 AM,39.6,32.0,74,29.92,10.0,WSW,3.5,-,N/A,,Overcast,250,2012-10-16 07:54:00
4:14 AM,39.2,32.4,76,29.91,10.0,WSW,3.5,-,N/A,,Overcast,250,2012-10-16 08:14:00
4:35 AM,39.0,32.0,76,29.92,10.0,WSW,6.9,-,N/A,,Overcast,240,2012-10-16 08:35:00
4:54 AM,36.5,31.1,81,29.92,10.0,WSW,3.5,-,N/A,,Scattered Clouds,240,2012-10-16 08:54:00
5:14 AM,35.6,30.9,83,29.92,10.0,WSW,4.6,-,N/A,,Clear,240,2012-10-16 09:14:00
5:35 AM,34.7,30.2,84,29.91,10.0,SW,4.6,-,N/A,,Clear,230,2012-10-16 09:35:00
5:54 AM,34.3,30.2,85,29.92,10.0,WSW,5.8,-,N/A,,Clear,240,2012-10-16 09:54:00
6:15 AM,34.3,30.2,85,29.93,10.0,WSW,5.8,-,N/A,,Clear,240,2012-10-16 10:15:00
6:35 AM,34.0,30.2,86,29.93,10.0,WSW,5.8,-,N/A,,Clear,240,2012-10-16 10:35:00
6:54 AM,33.6,29.8,86,29.93,10.0,SW,3.5,-,N/A,,Clear,230,2012-10-16 10:54:00
7:34 AM,33.4,30.0,87,29.93,10.0,SW,3.5,-,N/A,,Clear,230,2012-10-16 11:34:00
8:14 AM,34.2,30.7,87,29.93,10.0,SW,3.5,-,N/A,,Clear,220,2012-10-16 12:14:00
8:55 AM,36.7,31.8,83,29.92,10.0,SSW,3.5,-,N/A,,Clear,210,2012-10-16 12:55:00
9:14 AM,38.7,32.0,77,29.93,10.0,SSW,3.5,-,N/A,,Clear,210,2012-10-16 13:14:00
9:35 AM,40.1,32.7,75,29.93,10.0,SW,4.6,-,N/A,,Clear,220,2012-10-16 13:35:00
9:54 AM,41.5,32.7,71,29.92,10.0,SSW,3.5,-,N/A,,Clear,200,2012-10-16 13:54:00
10:14 AM,43.3,33.4,68,29.92,10.0,South,5.8,-,N/A,,Clear,190,2012-10-16 14:14:00
10:34 AM,44.6,33.6,65,29.91,10.0,SSW,5.8,-,N/A,,Scattered Clouds,210,2012-10-16 14:34:00
10:54 AM,45.9,34.9,66,29.90,10.0,SW,5.8,-,N/A,,Scattered Clouds,220,2012-10-16 14:54:00
11:14 AM,46.4,35.6,66,29.90,10.0,South,6.9,-,N/A,,Scattered Clouds,190,2012-10-16 15:14:00
11:34 AM,46.8,35.6,65,29.90,10.0,South,5.8,-,N/A,,Clear,190,2012-10-16 15:34:00
11:55 AM,48.2,36.3,63,29.89,10.0,SSE,5.8,-,N/A,,Clear,150,2012-10-16 15:55:00
12:14 PM,48.0,36.0,63,29.88,10.0,South,4.6,-,N/A,,Scattered Clouds,170,2012-10-16 16:14:00
12:34 PM,48.7,36.5,63,29.87,10.0,South,5.8,-,N/A,,Mostly Cloudy,180,2012-10-16 16:34:00
12:55 PM,49.5,37.0,62,29.86,10.0,SSE,4.6,-,N/A,,Overcast,150,2012-10-16 16:55:00
1:14 PM,50.4,37.0,60,29.85,10.0,South,8.1,-,N/A,,Overcast,180,2012-10-16 17:14:00
1:35 PM,51.4,37.4,59,29.84,10.0,South,6.9,-,N/A,,Scattered Clouds,170,2012-10-16 17:35:00
1:55 PM,52.3,37.4,57,29.83,10.0,SSE,9.2,-,N/A,,Scattered Clouds,150,2012-10-16 17:55:00
2:14 PM,52.0,37.2,57,29.82,10.0,SSE,8.1,-,N/A,,Scattered Clouds,150,2012-10-16 18:14:00
2:35 PM,52.7,36.5,54,29.81,10.0,South,5.8,-,N/A,,Overcast,180,2012-10-16 18:35:00
2:54 PM,52.7,37.0,55,29.80,10.0,SSE,8.1,-,N/A,,Overcast,160,2012-10-16 18:54:00
3:14 PM,52.2,36.7,56,29.80,10.0,South,6.9,-,N/A,,Overcast,170,2012-10-16 19:14:00
3:35 PM,52.7,37.4,56,29.79,10.0,SE,4.6,-,N/A,,Overcast,140,2012-10-16 19:35:00
3:54 PM,53.6,37.9,55,29.78,10.0,SSE,3.5,-,N/A,,Overcast,160,2012-10-16 19:54:00
4:14 PM,54.3,37.6,53,29.77,10.0,SSE,8.1,-,N/A,,Overcast,150,2012-10-16 20:14:00
4:35 PM,53.8,38.1,55,29.77,10.0,SSE,6.9,-,N/A,,Overcast,150,2012-10-16 20:35:00
4:54 PM,54.0,38.5,56,29.77,10.0,SE,6.9,-,N/A,,Mostly Cloudy,140,2012-10-16 20:54:00
5:15 PM,53.6,38.7,57,29.77,10.0,SSE,4.6,-,N/A,,Mostly Cloudy,160,2012-10-16 21:15:00
5:35 PM,52.2,39.6,62,29.77,10.0,ESE,8.1,-,N/A,,Overcast,120,2012-10-16 21:35:00
5:54 PM,51.8,39.9,64,29.76,10.0,SE,5.8,-,N/A,,Overcast,130,2012-10-16 21:54:00
6:15 PM,50.7,40.1,67,29.74,10.0,ESE,8.1,-,N/A,,Mostly Cloudy,120,2012-10-16 22:15:00
6:34 PM,49.6,39.9,69,29.74,10.0,ESE,9.2,-,N/A,,Scattered Clouds,110,2012-10-16 22:34:00
6:54 PM,49.1,40.1,71,29.73,10.0,ESE,9.2,-,N/A,,Scattered Clouds,110,2012-10-16 22:54:00
7:15 PM,48.7,40.6,74,29.73,10.0,ESE,8.1,-,N/A,,Mostly Cloudy,120,2012-10-16 23:15:00
7:34 PM,48.4,41.0,76,29.72,10.0,SE,5.8,-,N/A,,Mostly Cloudy,130,2012-10-16 23:34:00
7:54 PM,48.6,41.0,75,29.72,10.0,SE,8.1,-,N/A,,Overcast,140,2012-10-16 23:54:00
8:15 PM,49.1,40.8,73,29.72,10.0,SSE,12.7,-,N/A,,Overcast,150,2012-10-17 00:15:00
8:34 PM,49.3,40.5,72,29.71,10.0,SSE,12.7,18.4,N/A,,Overcast,160,2012-10-17 00:34:00
8:55 PM,49.5,39.6,69,29.73,10.0,South,9.2,-,N/A,,Overcast,170,2012-10-17 00:55:00
9:14 PM,49.6,38.1,65,29.72,10.0,South,8.1,-,N/A,,Overcast,170,2012-10-17 01:14:00
9:34 PM,49.5,37.4,63,29.72,10.0,South,10.4,-,N/A,,Overcast,170,2012-10-17 01:34:00
9:55 PM,49.3,37.4,64,29.71,10.0,SSE,9.2,18.4,N/A,,Overcast,150,2012-10-17 01:55:00
10:14 PM,48.7,37.0,64,29.70,10.0,SSE,12.7,16.1,N/A,,Overcast,160,2012-10-17 02:14:00
10:34 PM,48.2,37.4,66,29.70,10.0,SSE,10.4,-,N/A,,Overcast,160,2012-10-17 02:34:00
10:55 PM,48.2,38.3,69,29.70,10.0,SSE,12.7,-,N/A,,Overcast,160,2012-10-17 02:55:00
11:35 PM,48.4,38.5,69,29.69,10.0,South,11.5,-,N/A,,Mostly Cloudy,170,2012-10-17 03:35:00
11:54 PM,48.7,38.5,68,29.70,10.0,South,11.5,17.3,N/A,,Scattered Clouds,180,2012-10-17 03:54:00